GEFSSE_con_cape1000_330.txt.gz
Probability
10 26 45 52 58 52 58 58 52 52 48 48 52 58 55 52 61 61 55 55 55 52 45 45 48 39 42 42 48 52 52 61 52 39 52 52 45 55 61 65 58 35 68
6 26 42 65 58 61 58 55 52 52 48 48 48 52 52 55 58 61 55 58 61 52 45 42 39 45 48 42 45 48 55 58 52 45 48 42 58 65 61 58 55 42 74
3 23 29 55 61 58 61 55 55 45 48 52 48 55 61 55 58 58 55 65 58 52 42 42 39 52 55 39 42 48 45 45 48 42 52 10 16 52 58 55 61 58 65
6 19 19 55 52 58 58 61 48 52 45 45 42 61 58 55 55 55 52 58 52 52 52 35 39 45 42 52 45 42 45 42 39 48 29 10 16 39 48 55 65 58 61
6 16 32 45 55 55 55 55 52 45 45 45 48 52 58 58 55 58 61 65 65 52 55 35 39 39 42 39 39 42 39 35 32 23 13 13 26 42 45 55 58 65 58
10 23 39 52 55 52 55 52 52 55 48 52 58 61 55 58 55 58 55 61 61 65 52 48 39 35 29 32 39 35 32 32 29 16 16 16 19 39 32 35 45 45 52
6 19 32 58 52 55 52 52 48 48 48 48 52 61 52 55 61 55 65 55 48 58 48 39 32 29 29 29 35 32 32 29 13 16 19 23 26 32 35 32 35 39 39
13 19 29 42 45 45 39 45 48 48 48 48 61 55 65 58 58 61 58 55 52 45 42 39 42 35 32 35 39 39 29 29 6 3 10 29 42 39 35 32 35 42 39
13 16 26 29 29 39 39 42 48 48 48 42 45 52 52 45 39 48 52 42 39 39 35 35 29 32 32 35 29 32 29 26 10 6 3 16 29 32 35 29 35 35 32
13 16 19 32 26 32 32 35 39 45 42 39 42 35 45 42 42 42 39 35 35 35 29 26 35 29 29 35 29 29 26 29 13 13 16 23 42 39 35 35 39 42 35
13 16 19 29 29 26 23 16 29 35 35 35 32 26 29 39 23 29 13 32 23 23 29 29 32 32 29 26 23 23 29 26 19 19 26 26 48 39 42 35 42 39 39
13 13 16 23 26 19 16 26 23 13 23 29 32 23 35 39 42 13 16 29 29 26 32 29 32 29 19 19 23 29 26 19 23 19 29 39 35 35 29 29 26 29 35
16 16 19 26 23 19 16 16 16 26 19 13 23 26 32 32 19 13 16 26 35 32 32 26 23 19 19 23 26 16 13 16 23 16 29 32 32 26 32 32 32 39 35
13 13 29 26 26 35 23 13 10 13 16 13 16 19 19 23 23 26 32 35 39 39 35 26 32 23 26 23 23 13 6 16 23 26 45 32 29 39 32 29 32 35 35
19 16 32 32 26 29 29 29 13 16 13 13 32 29 26 23 32 23 35 35 35 32 35 29 32 29 29 19 16 10 16 23 23 16 26 35 35 32 32 26 29 39 35
13 23 35 39 32 39 35 35 26 10 32 19 26 32 32 29 32 23 32 32 26 29 29 32 23 29 29 26 29 29 19 19 26 29 32 29 35 35 42 29 29 32 32
19 23 29 29 35 39 35 23 16 16 13 23 29 39 39 26 29 32 26 26 29 29 35 42 29 29 39 32 32 19 23 29 19 29 26 35 35 35 39 35 35 29 26
26 29 35 16 23 35 42 48 29 26 26 32 35 29 45 35 32 35 29 29 26 26 35 32 32 35 35 32 26 29 26 35 26 26 32 35 32 29 35 29 32 32 26
35 39 45 35 32 32 48 52 35 35 45 35 45 39 48 39 35 35 35 39 39 35 39 35 35 35 35 32 29 26 23 23 29 26 26 29 26 29 35 35 35 35 35
35 42 52 58 52 42 45 48 45 42 35 39 42 52 48 42 35 39 32 39 35 32 42 45 42 45 39 45 26 26 26 26 29 26 23 16 19 23 26 32 39 35 29
39 48 55 55 65 61 55 48 48 45 45 42 39 45 45 42 42 42 35 35 35 35 39 39 39 39 42 42 32 29 29 26 29 29 23 19 19 26 26 32 42 42 32
52 52 52 58 52 61 58 55 55 45 39 35 32 45 48 45 45 35 42 39 39 39 39 48 52 42 42 42 35 35 26 29 32 19 26 26 26 29 29 26 35 39 35
55 55 48 58 61 58 58 48 52 52 42 29 45 42 39 45 39 42 42 42 45 39 45 48 55 42 39 42 45 39 26 16 19 19 26 29 32 32 26 23 23 29 35
48 52 55 61 65 61 61 55 45 48 42 42 48 39 42 45 39 39 42 35 42 39 45 42 39 48 52 52 48 48 48 35 26 26 23 26 29 26 26 19 26 29 39
52 52 52 55 61 61 61 65 65 55 42 35 39 48 48 52 48 39 39 42 48 45 45 48 39 39 48 42 39 39 35 42 32 23 23 23 16 19 29 26 29 32 32
48 48 48 58 58 61 61 55 58 58 55 55 55 52 45 42 42 39 39 48 48 48 48 45 45 39 45 45 48 42 35 32 29 26 19 19 26 16 23 29 26 26 35

GEFSSE_con_cape1000_336.txt.gz
Probability
32 48 65 61 52 55 55 55 55 48 45 52 55 52 48 55 58 61 61 55 58 61 58 55 39 39 39 39 39 42 35 39 42 48 48 45 35 45 45 48 42 35 61
23 42 61 55 52 48 52 52 52 45 45 48 48 55 52 52 55 61 58 55 55 52 52 42 39 35 35 35 42 39 39 35 42 39 35 39 29 45 58 45 58 35 65
26 32 42 52 52 48 48 52 52 45 48 48 52 45 48 52 52 55 55 58 48 52 52 35 35 39 39 35 39 39 32 35 35 39 39 19 19 45 52 48 65 61 68
23 13 29 61 48 48 45 45 48 52 48 52 52 48 45 48 48 48 45 45 45 48 45 45 42 42 39 35 35 35 32 39 42 48 19 10 10 45 58 48 52 61 61
19 19 35 58 52 48 42 48 48 42 39 42 45 39 39 39 42 48 42 39 52 45 48 42 35 35 35 39 42 35 32 26 35 26 6 10 13 58 61 52 52 45 55
23 16 35 58 45 45 42 45 45 39 39 39 39 32 39 39 48 39 42 35 45 48 39 35 39 32 39 35 32 32 29 29 26 19 19 16 16 55 52 42 48 52 55
23 23 32 55 45 52 48 39 42 45 45 39 35 42 39 45 52 45 39 39 42 35 42 39 32 39 35 29 26 35 32 35 26 13 19 13 26 45 42 35 45 48 58
19 29 26 45 48 48 45 45 42 45 45 52 42 48 45 42 55 52 39 42 39 35 32 32 32 39 29 32 35 48 55 45 19 6 26 26 39 52 45 39 42 35 42
23 32 32 29 48 45 42 45 45 48 55 55 52 52 48 42 55 48 45 42 32 26 26 26 29 26 23 32 35 32 45 48 29 6 10 19 39 45 39 35 32 29 32
26 32 35 32 26 26 32 45 52 52 48 52 52 42 42 48 39 45 39 45 32 29 23 23 29 26 35 39 32 35 45 39 26 13 26 26 35 35 32 32 35 29 29
23 23 29 26 16 19 16 35 42 39 48 48 42 42 39 29 26 39 19 39 32 29 23 26 39 35 42 35 35 45 35 29 16 19 23 26 39 35 26 26 26 26 32
19 19 19 16 16 13 6 35 23 23 35 39 48 39 39 45 39 26 29 42 32 39 39 35 42 48 39 26 29 42 29 23 23 26 26 42 42 39 35 26 26 26 29
23 19 19 26 39 16 26 29 35 29 39 35 42 48 55 45 32 29 35 32 35 35 29 32 39 29 19 32 32 35 29 19 16 23 23 45 45 42 39 32 26 32 39
26 23 16 23 39 48 32 23 26 23 39 29 48 48 45 58 45 35 42 42 48 42 35 42 45 35 26 32 29 29 23 23 23 16 29 45 45 42 39 39 39 39 42
32 29 32 48 48 55 45 39 29 39 35 29 48 45 48 52 48 45 45 52 42 32 42 45 39 35 35 35 29 23 29 29 26 23 16 42 45 42 35 35 35 39 32
29 32 42 29 55 68 55 45 42 35 55 42 58 55 55 52 55 52 45 45 45 39 35 39 48 42 42 42 39 35 32 29 23 29 26 29 42 42 42 35 35 32 35
35 48 55 35 58 65 48 42 39 39 26 48 55 55 55 55 55 55 48 45 45 42 39 45 42 45 42 42 39 35 32 29 32 32 35 35 32 39 45 39 39 35 35
39 58 58 35 48 55 61 58 39 39 42 52 52 58 55 55 52 48 48 45 45 45 45 45 48 45 42 45 45 39 35 39 29 39 35 35 39 26 39 42 45 35 32
48 61 55 58 55 65 68 68 55 48 42 45 55 58 55 45 52 55 52 48 42 42 45 39 45 48 45 42 42 42 35 39 32 35 32 35 39 35 35 42 48 45 35
55 65 65 71 74 74 68 71 68 58 45 48 52 58 55 45 48 55 52 48 45 45 45 48 45 55 52 52 42 35 26 29 39 42 39 35 39 39 39 32 35 39 35
58 61 68 71 81 84 74 71 65 58 58 55 55 61 58 52 55 55 48 52 45 52 55 45 52 52 52 42 42 39 39 39 32 35 42 35 29 39 26 32 42 29 19
61 68 68 77 77 77 77 81 71 68 61 61 58 61 65 55 58 42 55 61 58 61 55 55 58 58 52 52 52 48 42 32 39 35 35 35 29 29 32 29 32 35 26
48 65 65 77 77 77 77 71 71 74 65 55 58 65 58 61 61 61 61 58 61 65 61 65 61 55 58 61 61 52 45 39 45 42 39 39 39 42 32 29 29 26 32
55 58 68 74 77 77 74 71 68 68 61 61 68 68 58 61 61 58 52 58 61 65 68 61 55 61 58 58 65 58 45 45 42 42 35 35 42 39 32 29 29 32 35
52 55 61 74 77 81 77 74 74 71 68 61 61 61 65 61 52 52 61 55 55 68 68 68 61 58 61 58 61 58 55 52 45 35 29 35 39 39 39 35 35 32 39
48 48 58 74 84 81 77 68 74 68 65 68 68 68 65 68 68 61 58 65 61 61 61 61 61 61 65 65 68 61 61 52 48 42 35 32 26 32 35 35 29 29 32

GEFSSE_con_cape1000_342.txt.gz
Probability
16 26 61 52 42 45 45 52 58 61 61 61 55 65 58 61 71 65 61 58 65 65 61 52 48 48 48 55 55 42 42 48 48 39 45 39 39 45 52 55 45 39 61
19 23 61 55 45 45 48 52 55 55 55 55 52 52 45 52 55 58 61 55 65 65 55 52 48 45 48 52 58 58 45 45 48 42 42 35 39 45 52 45 48 39 58
23 23 42 58 52 55 52 52 48 48 55 48 52 45 45 48 55 55 55 52 55 52 52 45 42 42 39 42 52 52 48 52 45 42 48 23 29 48 55 48 55 52 58
16 16 26 45 52 55 52 52 52 55 55 52 52 48 48 45 48 52 61 58 48 48 42 42 42 45 32 35 45 48 39 32 39 29 19 13 13 42 55 55 55 52 52
13 16 32 55 45 48 48 48 45 45 52 48 52 58 52 48 48 52 55 55 52 45 48 39 48 42 42 42 39 42 42 35 32 26 3 0 6 35 48 48 55 48 48
13 19 32 52 45 48 52 45 48 48 48 52 48 55 58 48 45 48 55 48 52 45 45 35 32 42 42 42 45 42 39 32 23 6 3 0 6 35 42 48 55 48 55
13 23 35 55 48 48 48 52 52 55 55 55 48 55 55 52 48 45 45 48 45 45 35 32 29 35 35 45 45 42 45 35 13 6 3 0 6 35 48 48 45 52 55
10 26 32 55 48 42 52 52 61 61 58 58 55 55 48 45 55 55 45 45 48 48 35 26 26 29 35 48 45 42 52 45 16 6 0 0 19 35 48 42 42 48 45
6 10 19 26 39 48 55 58 58 55 58 58 52 52 48 48 48 48 48 52 39 39 29 32 26 39 39 42 55 48 48 45 19 6 0 0 23 39 35 42 39 39 39
6 13 16 16 13 19 29 52 52 55 55 58 55 48 48 48 45 52 48 52 39 35 29 29 29 42 42 42 52 52 48 39 10 10 10 6 39 35 32 32 32 32 29
0 6 13 13 13 13 13 29 35 45 45 39 45 48 32 16 16 29 32 48 35 29 39 42 39 39 42 42 45 48 48 16 10 6 6 16 42 35 29 29 32 26 29
0 0 0 3 3 3 10 13 13 13 13 13 10 13 10 6 6 6 29 45 39 32 35 35 35 45 42 26 16 32 19 10 6 3 10 29 45 42 29 26 26 26 29
3 0 0 0 0 0 6 10 6 10 10 10 10 6 6 3 3 0 0 10 10 19 16 19 29 29 13 6 6 6 6 6 6 3 6 42 52 42 39 35 39 26 35
6 0 0 0 0 0 3 3 0 3 3 6 6 6 3 3 0 0 0 0 0 0 3 3 6 10 6 6 6 6 6 6 6 6 3 32 45 52 45 42 39 32 29
10 0 0 0 0 0 3 3 3 0 0 3 6 6 3 3 0 0 3 3 3 3 6 6 10 10 6 6 10 6 6 6 6 6 6 32 42 45 45 45 39 35 32
6 0 0 0 0 0 0 0 3 3 6 10 10 10 6 10 10 3 6 6 6 6 0 3 6 6 10 6 6 10 6 6 10 6 6 13 39 35 42 42 35 35 35
6 6 3 0 0 0 0 3 0 0 0 3 13 13 13 6 6 3 3 6 6 6 10 6 10 6 6 6 6 6 6 6 10 10 6 6 10 29 35 48 45 39 39
10 10 6 13 0 0 6 6 6 3 3 3 10 10 16 10 10 10 13 10 13 13 10 10 6 6 6 6 6 6 6 6 6 6 6 6 6 6 23 42 48 45 48
13 13 10 10 6 6 3 3 3 3 10 10 10 10 16 19 16 13 13 10 13 10 10 16 10 6 6 6 6 10 6 6 6 6 10 6 6 6 13 23 45 52 42
16 13 16 10 13 13 13 13 10 10 10 10 10 13 13 16 13 13 19 16 13 13 10 13 10 13 10 10 10 13 10 10 6 6 6 10 6 6 6 10 13 32 42
19 19 16 13 13 16 16 16 13 6 13 13 13 13 16 16 16 19 19 13 16 13 13 16 10 13 16 10 10 6 3 3 6 6 3 3 3 10 10 10 10 13 19
19 19 23 10 13 16 13 16 16 16 16 16 13 10 16 16 16 19 16 19 23 19 16 13 10 10 10 13 10 3 6 3 3 6 6 3 0 6 3 10 10 13 13
26 19 32 19 13 16 19 16 16 16 13 16 10 16 16 16 19 19 26 19 19 19 19 16 16 16 16 16 16 10 10 3 6 6 3 6 3 3 10 16 13 13 6
26 23 26 19 23 23 26 19 19 16 16 19 19 16 13 13 16 26 19 23 19 19 26 23 23 16 16 23 16 13 13 10 10 6 3 6 3 3 6 13 13 10 3
35 39 29 26 29 26 26 26 23 19 16 19 19 19 19 19 16 13 16 16 23 26 32 29 26 23 23 26 26 26 19 10 13 3 6 6 3 3 10 6 6 6 10
35 39 39 32 32 23 19 19 23 23 23 19 16 16 19 13 13 13 13 16 19 26 32 32 29 26 26 26 19 16 16 16 16 10 3 6 10 3 3 6 6 6 6

GEFSSE_con_cape1000_348.txt.gz
Probability
6 13 39 45 39 52 55 52 55 48 52 45 52 45 48 52 58 65 61 68 61 58 61 58 61 52 55 58 55 55 55 52 52 52 55 55 55 58 65 61 61 39 55
6 13 35 42 48 45 48 58 58 45 45 45 48 45 39 39 52 55 58 61 55 55 55 61 58 55 55 45 58 48 55 52 52 52 55 45 52 52 52 52 55 35 52
10 10 29 52 58 48 52 42 48 42 48 42 39 39 42 42 52 52 48 58 58 55 58 55 48 48 48 52 55 52 52 52 48 45 39 26 32 45 48 48 45 45 58
10 10 16 48 58 55 45 45 45 45 39 42 39 45 45 45 52 48 48 55 55 58 55 48 42 45 45 45 52 58 65 55 42 35 23 19 16 29 48 52 45 48 55
6 10 13 45 45 52 52 52 48 48 32 39 45 42 35 42 42 45 42 52 52 45 48 45 42 39 45 45 42 58 48 48 32 23 10 13 16 29 32 48 48 42 45
13 13 13 45 48 45 45 48 48 42 45 42 45 42 42 45 48 39 42 42 42 39 42 39 35 39 45 39 45 42 45 39 26 10 3 3 16 29 35 45 45 48 45
13 13 16 42 39 42 42 39 35 42 42 42 45 42 42 39 35 39 39 35 39 35 42 42 35 35 39 29 39 42 39 29 23 10 3 3 6 29 32 42 45 48 42
10 13 16 42 45 45 39 35 39 42 32 39 39 42 39 39 39 42 29 35 32 35 42 32 35 35 39 42 45 48 52 35 23 13 6 3 6 29 32 39 42 45 39
13 13 13 23 26 35 35 48 42 48 39 42 42 39 35 39 39 35 35 45 42 45 42 35 26 39 35 42 42 48 45 35 32 10 10 6 19 42 35 32 39 42 42
10 13 6 13 16 23 19 32 42 48 45 42 39 45 39 39 42 39 48 52 39 48 45 42 39 42 42 39 35 29 35 32 23 13 10 10 26 39 39 35 32 39 39
3 6 6 6 10 10 10 26 23 35 35 29 26 39 35 6 6 16 23 39 39 39 39 35 32 39 39 39 39 42 32 19 16 10 10 10 32 35 32 39 32 35 39
3 6 6 6 3 10 10 13 16 6 3 3 3 3 3 3 6 10 16 39 35 35 32 35 42 42 32 26 26 26 13 13 10 6 6 23 45 39 35 39 35 35 35
0 0 0 0 0 0 0 3 3 3 3 6 6 6 6 3 3 3 3 3 6 13 10 10 13 13 10 13 16 10 10 10 6 6 6 19 42 45 39 39 32 29 35
0 0 0 0 0 0 0 3 3 0 3 6 6 6 6 3 3 3 0 0 0 0 0 0 0 3 3 10 6 10 10 6 6 6 6 19 39 39 39 45 39 39 39
0 0 0 0 0 0 0 0 3 0 0 0 0 3 6 3 0 0 0 6 3 3 3 3 3 6 3 3 3 6 6 6 6 10 13 13 29 35 42 45 42 42 42
0 0 0 0 0 0 0 0 0 0 0 0 0 0 3 0 0 0 3 3 3 3 3 0 3 6 10 6 6 6 6 6 6 6 6 10 26 42 45 45 39 42 42
0 0 0 0 0 0 0 0 0 0 0 0 0 3 0 6 3 6 3 3 0 3 3 3 6 6 10 10 6 6 6 6 6 6 6 6 10 23 32 39 45 39 35
3 0 0 0 0 0 0 0 0 0 0 0 0 0 6 10 10 6 6 0 3 3 3 6 6 6 10 6 6 6 6 10 10 6 6 6 6 6 16 29 42 48 39
3 0 0 0 0 0 3 0 0 3 3 3 3 3 6 10 13 10 6 6 6 10 6 6 10 6 6 6 6 6 10 10 10 13 6 6 6 6 6 13 26 45 39
3 0 0 0 0 0 0 3 3 3 3 0 3 6 10 13 10 6 6 13 10 10 16 16 10 6 6 6 6 10 6 10 10 6 10 13 13 6 13 10 10 23 29
3 3 0 0 0 0 0 0 3 3 0 0 0 3 6 10 10 10 16 16 13 13 13 13 13 13 10 10 10 10 6 6 3 6 6 6 10 10 10 13 10 16 19
3 3 0 0 0 0 0 0 3 0 0 3 3 6 10 10 13 13 13 16 16 16 16 16 10 13 13 13 10 6 6 6 3 0 3 3 3 6 16 16 16 13 23
3 3 6 0 3 3 3 3 6 10 6 3 6 6 10 13 16 16 10 13 13 16 16 16 13 16 16 13 10 10 6 13 6 3 0 6 6 6 6 13 16 16 16
0 3 3 0 0 0 3 10 10 10 10 6 6 10 6 6 10 10 10 6 13 13 13 16 19 19 16 16 13 16 13 13 19 16 10 3 6 10 13 16 10 13 10
10 10 6 0 0 0 6 6 10 13 10 6 13 13 10 6 6 6 10 10 6 13 16 16 19 19 16 19 23 13 10 6 13 16 13 6 10 10 13 16 10 10 19
16 13 6 3 3 6 10 3 10 10 10 10 10 10 6 6 3 3 3 0 10 13 16 13 13 13 13 16 16 16 16 13 16 13 16 13 10 10 10 13 10 10 13

GEFSSE_con_cape1000_354.txt.gz
Probability
13 23 39 42 42 42 58 55 55 52 45 48 42 39 39 39 52 58 48 52 61 61 58 55 55 52 52 48 48 52 52 55 61 58 61 55 55 52 65 58 52 35 68
10 23 35 35 39 48 61 55 52 48 48 48 45 45 48 52 58 65 58 58 52 55 58 55 52 52 39 48 52 55 65 55 55 58 58 58 52 52 61 52 52 45 65
6 16 26 39 45 55 58 52 42 45 45 35 42 39 45 52 55 61 55 58 52 52 55 52 52 39 35 39 52 52 52 48 61 65 55 23 32 45 52 52 52 52 52
6 13 19 39 45 45 48 45 42 42 45 39 35 39 48 45 48 45 48 45 39 42 42 45 45 42 35 29 35 45 48 45 45 45 29 19 19 32 39 42 52 55 58
6 10 23 39 42 45 45 42 39 42 42 42 45 45 32 39 39 45 42 39 39 39 39 39 39 35 39 39 32 39 45 42 42 35 13 16 23 32 32 48 58 58 58
3 3 26 35 35 35 39 45 42 42 39 42 42 45 35 42 42 39 45 48 48 45 35 42 39 35 32 35 39 39 42 32 29 13 10 13 19 42 32 42 52 52 52
0 6 16 32 39 35 39 39 42 42 42 35 42 48 42 42 42 39 42 42 39 42 42 39 35 35 35 39 32 32 35 35 16 13 13 10 26 39 35 45 39 42 45
3 10 16 26 26 39 39 35 39 45 42 42 45 45 35 42 39 32 32 32 42 42 35 39 32 39 32 32 32 32 32 32 10 10 6 6 26 32 32 42 32 35 39
3 10 13 10 23 32 32 35 39 35 39 39 42 32 35 39 42 48 39 45 42 48 48 52 45 39 39 39 35 35 32 29 19 23 13 13 23 29 29 32 29 32 32
6 6 10 3 13 19 26 23 29 29 32 39 42 35 45 39 35 39 42 45 39 42 45 45 39 48 35 32 26 26 29 32 13 10 13 16 35 32 32 32 39 29 29
6 6 6 10 19 19 13 13 26 32 26 29 35 35 39 23 19 19 16 42 42 45 39 35 32 39 32 29 32 32 32 26 16 16 19 23 42 23 29 32 35 32 29
10 10 10 13 16 16 13 16 26 10 19 29 39 35 35 42 52 3 23 42 39 35 39 35 35 26 26 26 32 42 32 26 26 23 19 39 35 23 32 32 32 32 29
23 16 16 13 19 13 19 19 23 13 23 19 23 39 45 39 32 19 26 35 39 32 29 32 29 23 23 35 35 23 32 23 29 16 23 42 35 35 35 39 39 35 32
26 23 23 23 19 29 19 23 16 16 19 19 29 29 39 35 39 35 45 39 45 42 39 35 45 39 39 35 26 29 26 23 19 19 32 42 45 45 39 32 42 39 39
23 26 26 29 29 32 39 32 13 16 10 13 39 35 35 39 39 39 55 55 39 45 45 52 45 35 39 26 23 19 35 32 23 13 23 39 42 42 42 35 39 32 35
19 23 23 19 39 52 48 45 32 13 39 19 29 29 39 39 45 42 45 52 42 48 55 55 39 45 39 32 23 26 26 26 23 23 29 23 39 42 42 39 39 39 35
13 16 19 26 32 52 45 45 29 26 23 26 29 39 45 39 45 48 45 42 45 48 52 52 45 42 39 32 26 26 26 26 23 26 26 26 29 35 35 29 35 39 45
19 26 26 16 23 52 55 55 39 32 26 32 35 39 42 42 45 48 39 42 52 52 52 48 42 45 35 39 35 19 19 32 29 29 26 29 32 29 29 32 29 29 42
29 35 35 35 42 52 52 52 42 39 42 35 35 42 39 42 39 35 39 42 42 48 52 39 42 39 42 45 26 35 23 29 39 29 32 29 29 32 35 39 39 39 48
39 39 48 55 58 55 48 48 45 42 32 39 35 35 32 32 32 32 29 39 29 35 39 42 48 45 48 45 23 26 26 26 32 35 32 29 32 35 35 32 42 39 45
48 48 55 55 65 61 52 52 45 39 29 32 32 35 32 32 29 32 26 39 32 32 35 32 42 45 42 39 29 29 32 23 26 39 29 26 26 29 32 39 42 39 42
48 42 45 52 55 58 58 55 52 48 35 29 35 42 32 29 32 26 32 35 35 45 39 42 42 42 42 35 48 45 29 39 52 23 39 35 26 32 29 32 35 48 45
29 42 39 58 65 61 61 48 52 55 45 29 35 32 23 26 29 35 32 32 35 32 35 45 48 48 39 42 39 39 29 23 35 32 39 35 45 45 29 29 35 39 35
35 32 52 58 65 68 55 55 48 45 42 42 48 35 39 35 35 35 39 35 39 39 42 39 39 42 48 45 42 45 35 35 39 39 39 32 35 39 39 26 29 35 35
29 32 45 58 61 61 58 55 58 48 42 45 48 52 42 35 39 32 35 48 52 39 42 39 39 48 42 39 42 42 39 48 45 42 32 29 29 26 32 32 35 35 35
29 26 35 55 68 58 55 55 61 55 52 45 55 52 39 32 39 32 42 48 52 39 55 52 45 45 45 45 45 39 39 39 45 35 32 42 35 16 19 23 19 29 32

GEFSSE_con_cape1000_360.txt.gz
Probability
39 32 55 68 65 68 65 61 61 58 58 55 39 35 45 48 52 52 45 45 45 48 48 35 39 42 39 39 45 35 35 52 52 52 61 55 61 68 68 61 65 45 55
26 26 61 61 68 68 68 65 65 58 48 55 52 42 48 48 45 48 45 45 45 45 45 39 35 42 39 39 42 39 42 42 39 52 58 55 55 65 65 65 65 39 58
16 23 45 52 58 68 68 68 65 52 48 48 42 48 42 35 42 48 45 45 42 39 39 29 29 39 42 35 45 42 39 45 42 55 58 45 42 58 58 58 61 61 61
13 23 29 55 52 52 55 58 55 45 45 48 42 52 39 35 42 45 42 35 35 32 32 32 35 32 39 32 29 42 32 35 52 52 32 13 19 48 55 52 55 52 55
13 26 39 55 42 39 45 48 52 48 45 45 39 45 45 39 42 42 39 39 35 35 39 39 35 29 39 29 29 32 39 48 48 45 23 13 19 42 45 52 52 55 58
19 23 35 48 42 35 42 52 45 35 42 39 39 48 45 45 35 32 39 45 48 42 45 42 35 32 42 32 32 32 32 39 35 16 23 13 10 42 48 45 45 52 55
16 19 26 48 48 42 45 42 35 35 39 42 45 39 39 39 35 29 32 39 39 45 48 45 39 39 35 39 29 29 26 35 29 16 13 6 26 45 45 48 42 48 52
13 32 32 45 48 42 42 39 35 39 45 45 39 42 48 42 39 39 32 39 35 35 45 45 45 52 42 39 35 39 42 32 13 13 6 10 29 42 45 45 39 52 52
13 23 26 26 39 39 39 42 42 39 35 39 29 35 42 48 39 35 39 42 42 35 42 45 45 42 42 42 35 42 39 52 26 13 10 10 29 39 45 39 39 39 39
10 10 19 19 23 26 26 32 45 39 42 35 32 35 32 42 35 35 39 52 39 35 39 45 35 35 42 35 42 42 35 42 29 26 16 16 39 45 42 39 35 42 39
10 16 16 23 26 23 16 26 42 45 45 39 39 42 39 42 32 32 32 42 42 45 52 45 45 39 32 32 39 45 39 26 26 23 19 23 39 42 42 42 42 45 39
23 16 13 13 19 19 19 32 29 32 48 45 55 58 55 42 45 16 39 45 52 52 52 52 52 45 42 19 29 42 26 26 26 23 16 42 42 42 35 42 45 42 39
29 26 16 13 19 23 23 23 35 35 58 45 52 52 45 42 35 32 35 42 48 48 39 48 42 29 32 32 29 23 26 26 26 19 16 45 42 35 42 39 45 42 39
26 23 23 26 32 42 35 35 39 35 39 42 55 45 48 48 48 39 52 45 45 52 48 39 48 45 42 32 26 23 23 26 26 23 23 45 42 39 35 45 42 42 45
29 26 32 39 48 42 48 52 39 39 39 52 52 52 48 52 48 48 48 55 48 48 45 55 48 42 39 35 35 26 32 26 23 23 23 32 39 39 39 45 52 48 42
19 23 29 35 52 52 52 55 52 45 58 52 55 52 48 52 52 58 58 65 58 58 52 55 55 52 45 48 45 35 45 35 26 29 29 26 32 32 35 35 39 45 42
23 29 45 45 55 61 58 58 52 42 32 42 52 52 48 48 55 58 55 58 58 52 65 55 52 55 45 45 52 45 48 48 39 39 39 32 19 35 32 39 35 42 45
35 45 48 16 55 65 68 65 55 52 55 52 52 52 52 48 48 55 55 55 65 61 58 61 55 58 52 52 55 45 52 52 39 35 32 26 26 23 32 35 42 45 39
52 58 55 61 65 68 71 65 58 61 61 68 55 52 52 45 45 48 58 61 58 61 58 48 61 58 52 52 52 42 45 48 45 35 29 29 35 39 19 29 42 39 35
48 71 71 74 71 68 68 71 71 68 68 65 55 52 52 45 48 52 61 58 55 52 58 58 52 61 58 52 39 35 45 42 42 39 32 29 35 35 32 29 32 29 39
48 68 71 74 74 71 74 68 65 61 68 71 58 48 45 45 52 55 42 55 61 55 55 48 45 55 55 61 55 52 42 45 48 42 45 35 35 42 32 29 26 29 29
48 68 74 74 77 77 77 81 81 68 65 68 68 55 48 52 52 39 55 52 52 52 55 58 55 52 48 55 52 48 42 45 48 35 45 39 35 35 35 23 23 32 26
52 55 55 71 77 74 74 74 71 74 68 65 68 71 58 58 55 55 48 48 55 52 52 55 52 52 55 52 55 42 42 42 45 48 42 39 39 32 35 35 35 32 29
48 58 65 71 74 77 74 74 77 74 68 68 74 74 68 65 58 48 48 52 55 48 52 48 55 55 55 52 48 52 45 42 39 39 42 39 35 39 39 35 29 29 29
45 58 65 71 71 74 77 81 81 81 74 68 81 74 77 68 65 52 65 65 65 61 55 52 55 52 55 52 45 42 48 48 45 45 35 35 35 32 35 35 32 32 32
29 45 55 68 74 74 77 77 77 81 81 81 77 77 77 71 65 58 52 65 65 68 65 58 58 55 55 52 52 55 45 42 45 39 32 35 32 35 26 29 32 32 26

GEFSSE_con_cape1000_366.txt.gz
Probability
13 35 65 68 71 74 68 65 61 55 55 55 55 52 52 55 52 52 48 48 42 45 48 52 48 45 48 45 42 48 55 58 65 58 58 65 65 68 71 68 55 42 65
13 39 68 68 68 68 65 61 61 55 52 55 55 55 48 48 52 48 48 45 45 42 42 39 52 48 52 45 52 58 52 52 52 58 58 52 58 65 74 71 65 39 65
13 39 55 68 71 68 74 61 61 61 58 55 55 61 58 52 52 45 42 48 42 45 42 35 48 42 48 55 55 55 48 52 48 45 58 29 39 61 65 65 68 65 65
16 19 42 68 71 71 71 68 71 65 65 55 52 55 58 48 45 45 42 42 39 32 35 39 39 42 39 42 42 42 35 48 45 39 13 13 13 45 68 68 68 65 65
6 10 35 71 71 65 68 74 65 65 61 52 58 52 52 45 45 45 39 42 35 35 29 32 35 39 42 39 42 39 45 45 39 23 6 6 3 39 55 55 58 61 65
6 6 39 68 68 68 74 71 65 61 65 58 48 48 52 42 35 42 39 39 35 32 35 39 45 39 48 42 39 42 39 39 26 6 3 3 6 32 39 42 42 52 58
6 13 32 65 65 55 55 52 55 52 52 55 52 48 52 45 35 39 32 35 32 45 35 42 48 45 48 48 45 45 39 35 19 3 3 3 3 29 32 48 42 45 55
10 23 32 58 58 52 52 52 48 48 52 48 52 48 42 42 39 45 39 42 35 45 45 42 45 45 52 55 52 48 39 32 16 6 3 3 10 23 29 39 45 45 55
10 13 23 29 42 52 58 52 48 48 48 42 42 45 48 45 39 45 48 39 45 48 45 45 45 45 45 48 48 55 48 35 23 6 3 3 16 32 35 42 45 48 48
6 10 13 16 19 26 26 48 45 45 45 48 42 45 45 35 35 39 45 55 48 42 48 48 45 52 48 48 55 55 52 35 13 10 3 3 35 35 39 42 48 52 52
3 3 6 6 10 13 13 29 39 39 42 32 32 42 32 19 16 26 32 45 48 61 61 58 48 48 52 45 55 52 42 19 16 10 10 23 35 23 35 45 48 45 48
3 3 0 0 0 6 6 10 16 19 13 13 6 6 13 10 6 16 29 52 52 58 55 61 61 45 35 16 16 32 23 13 10 10 10 26 39 32 32 39 48 42 48
0 0 0 0 0 3 3 6 3 3 6 3 3 3 6 3 3 10 10 19 26 29 13 23 26 19 6 10 10 10 10 13 6 13 13 35 39 35 32 35 45 52 58
0 3 0 0 0 3 6 13 6 3 3 3 3 0 0 0 3 6 10 6 3 6 3 6 6 6 3 3 13 13 10 6 6 10 13 32 39 35 29 35 42 42 55
6 3 6 3 3 6 6 6 3 6 6 6 3 3 3 3 3 3 3 3 3 3 3 6 3 6 6 3 10 6 3 3 6 10 6 32 42 42 32 35 32 32 39
6 6 3 6 0 6 6 3 3 0 3 6 3 6 3 3 3 6 3 3 6 3 3 3 0 3 0 3 6 6 0 0 3 6 6 16 32 39 35 39 35 35 35
0 6 6 13 10 13 13 16 13 10 6 6 3 6 10 6 6 13 6 3 3 6 6 6 3 3 3 0 3 3 3 3 3 6 6 6 16 35 39 39 32 32 35
3 3 10 13 13 13 16 16 16 10 13 13 10 13 16 13 16 10 10 10 13 13 10 3 3 3 0 0 3 0 0 3 3 6 6 6 6 6 26 35 35 39 39
3 0 0 10 13 13 10 13 13 13 13 13 13 13 13 13 16 13 10 13 10 6 10 13 6 3 0 3 3 0 0 6 6 6 6 6 6 6 6 23 35 39 42
3 0 6 10 13 16 16 10 10 13 16 16 13 13 10 13 16 16 16 16 13 3 6 6 13 10 3 6 10 10 6 6 6 6 6 6 3 3 10 13 16 29 39
10 13 13 13 10 13 13 10 10 6 10 13 13 10 13 13 19 10 13 13 10 10 6 10 16 16 10 6 6 6 6 6 6 6 6 6 6 6 10 3 6 10 16
16 13 16 19 13 19 16 10 10 16 13 16 13 13 13 16 13 19 10 13 13 13 10 13 13 13 10 10 13 6 3 3 3 10 6 6 6 10 13 6 6 6 3
16 19 26 23 23 29 23 19 23 13 16 13 16 10 10 13 13 13 10 6 6 10 13 16 13 13 13 10 6 3 3 3 6 3 10 10 10 10 10 10 10 13 10
29 26 26 26 29 29 26 23 19 16 16 16 16 16 13 13 13 13 6 6 10 10 13 16 10 13 13 13 10 6 3 3 3 3 3 3 6 10 10 10 10 10 13
32 26 29 19 19 19 19 23 23 19 16 13 13 16 16 16 16 19 6 6 6 6 10 13 10 10 13 19 16 16 13 3 3 3 0 0 3 3 3 3 10 10 10
23 29 35 23 16 10 16 16 16 16 16 19 19 19 13 13 13 16 16 10 10 10 10 10 13 10 10 13 13 13 16 10 3 3 0 0 0 0 0 0 3 10 10

GEFSSE_con_cape1000_372.txt.gz
Probability
0 3 48 55 68 65 61 55 58 55 55 52 48 55 48 52 58 48 48 58 55 52 52 52 52 52 48 52 68 52 52 55 61 61 61 61 61 61 55 61 58 48 61
6 13 48 68 71 65 68 61 58 61 58 58 52 48 48 52 52 45 45 45 55 48 42 45 45 52 45 48 65 65 55 55 58 61 55 55 52 55 58 68 65 45 71
13 16 42 65 68 68 71 61 58 58 61 58 58 58 52 52 55 42 42 45 42 39 39 45 55 55 55 58 58 61 58 55 55 58 65 45 48 58 61 61 68 68 71
10 16 29 61 65 71 71 71 58 65 61 61 52 52 48 48 45 39 42 42 35 29 29 39 45 42 52 52 52 52 45 45 48 48 26 39 29 45 58 58 61 65 71
10 13 29 65 61 61 65 58 55 52 55 42 39 45 55 48 42 42 42 39 35 35 39 39 48 52 42 55 58 52 48 42 48 29 16 10 19 42 52 58 61 61 68
6 19 26 58 65 61 65 65 48 52 45 39 45 45 52 52 48 45 48 39 42 42 42 48 55 52 39 39 48 42 45 42 23 16 10 6 6 23 45 48 48 55 61
3 16 19 45 61 55 55 52 42 48 48 39 42 35 35 42 45 48 45 39 48 45 42 48 52 42 42 48 45 42 45 39 26 10 3 3 6 23 35 39 45 52 55
3 13 13 42 48 55 52 52 48 48 39 39 42 35 39 48 45 45 39 35 35 42 39 48 52 52 55 52 39 35 39 32 16 3 3 3 10 16 13 32 39 42 48
6 10 13 23 35 45 45 55 48 45 45 42 48 39 32 35 42 45 42 45 52 48 52 58 58 61 58 55 35 42 39 39 26 16 3 6 13 13 16 26 29 32 39
6 10 10 13 19 19 23 39 45 52 42 35 42 32 32 35 32 39 39 45 42 52 45 48 55 48 48 48 55 45 42 32 23 19 16 10 23 29 29 23 26 29 42
0 6 6 3 10 10 10 23 23 32 26 26 32 32 32 16 16 23 32 39 39 48 52 52 58 48 39 35 45 52 39 23 23 16 16 26 35 39 32 39 39 35 48
0 0 0 0 3 6 10 6 3 13 13 13 10 10 10 6 6 16 23 39 42 45 45 48 58 48 29 29 32 29 19 19 19 13 16 26 39 39 42 42 42 35 39
0 0 0 0 0 0 3 0 0 3 3 3 3 3 3 3 3 6 3 10 19 19 10 16 23 23 16 13 13 16 16 13 6 10 16 32 45 42 39 35 35 39 45
0 0 0 0 0 0 0 0 0 0 3 3 3 3 3 0 0 0 0 0 0 0 3 3 6 6 3 10 13 13 10 13 6 6 19 29 42 48 42 32 32 39 35
0 0 0 0 0 0 0 0 0 0 0 0 0 0 0 0 0 0 0 3 3 3 0 3 3 3 6 6 6 10 6 6 6 6 6 23 39 42 39 32 32 35 42
0 0 0 0 0 0 0 0 0 0 0 0 3 3 0 0 0 0 0 3 3 3 3 3 3 3 3 3 3 3 3 3 3 10 10 10 26 35 35 32 32 32 42
0 0 0 0 0 0 0 3 3 0 6 3 3 6 6 6 3 3 3 3 3 6 6 3 3 0 0 3 0 0 0 3 3 3 3 10 19 26 32 35 32 32 32
0 0 0 6 3 3 3 3 3 3 3 3 0 0 3 6 6 3 3 3 3 6 3 3 3 3 0 3 0 0 3 3 0 3 6 6 6 6 19 32 32 29 35
0 0 3 6 6 6 3 3 3 3 3 3 3 3 3 3 3 3 3 3 3 3 6 6 3 6 0 0 3 6 6 6 3 6 6 6 10 13 6 13 29 32 32
0 3 3 3 3 3 3 3 6 6 3 3 3 3 3 3 3 3 6 6 6 6 6 6 6 6 10 10 6 10 10 10 6 10 6 3 6 10 13 6 16 19 32
3 3 3 3 3 3 3 6 6 3 3 3 3 10 6 6 10 10 10 6 6 6 6 10 10 10 10 10 6 3 0 3 3 6 10 10 6 6 10 13 10 10 19
3 3 3 3 3 3 6 6 6 3 3 3 3 3 10 13 13 13 10 10 6 6 6 6 6 10 13 6 6 6 3 3 3 6 10 10 13 6 10 13 13 10 10
13 3 3 3 3 6 3 3 6 3 3 3 3 0 6 10 10 10 10 10 6 3 3 3 6 6 10 10 6 6 6 6 3 6 6 3 13 13 10 16 19 19 13
6 3 0 0 0 3 3 6 3 3 3 3 3 3 6 6 6 10 10 10 10 3 3 3 0 6 6 6 10 6 3 3 3 3 6 3 3 10 6 10 13 13 16
3 0 0 0 3 3 3 3 3 3 3 3 3 6 10 3 3 6 6 6 6 3 3 3 3 6 6 6 10 10 3 0 0 3 10 3 3 6 6 6 6 10 16
3 0 0 3 3 3 3 3 3 0 3 3 10 6 6 6 6 6 10 10 3 0 0 0 3 6 6 6 6 10 10 10 3 3 3 0 0 3 0 0 3 6 3

GEFSSE_con_cape1000_378.txt.gz
Probability
10 29 55 52 48 65 65 61 61 61 58 52 55 58 48 48 45 58 55 52 52 61 61 61 61 61 61 61 45 55 58 55 55 48 52 48 45 58 48 52 48 32 61
13 19 55 52 58 61 68 61 61 61 52 48 55 58 52 52 42 48 45 52 55 48 52 58 58 58 61 58 52 48 48 61 61 55 48 39 45 55 55 52 58 39 61
6 23 35 65 61 58 55 55 52 52 48 55 52 48 55 48 45 39 42 45 45 45 45 55 55 52 52 55 55 42 48 52 52 52 48 39 42 45 48 55 65 58 58
6 16 23 61 61 55 52 48 45 39 52 48 52 52 42 35 42 42 55 48 42 48 48 52 52 45 45 52 48 48 35 39 42 42 42 16 19 39 48 52 58 55 61
6 16 39 52 55 58 52 39 42 42 45 52 45 42 48 45 45 45 48 42 45 48 42 52 52 48 45 45 45 45 39 42 39 26 19 32 29 48 48 45 48 65 61
3 13 29 52 48 58 55 55 45 48 52 48 42 45 48 42 42 48 45 39 42 42 42 42 45 48 52 39 39 39 42 35 29 26 23 29 26 48 52 45 55 61 58
6 13 16 45 48 58 52 52 48 42 48 45 45 45 39 42 42 45 39 35 39 42 42 42 45 52 52 35 35 39 42 32 23 19 16 23 29 42 42 32 39 52 55
6 16 19 42 48 48 48 52 52 58 58 45 35 35 32 42 45 48 42 42 39 48 48 48 45 45 39 35 42 35 35 29 10 10 16 16 29 45 35 39 39 45 48
3 13 23 29 39 35 35 52 42 45 48 42 42 35 42 35 45 42 42 42 42 45 45 42 45 48 42 45 39 35 39 29 16 6 6 13 29 35 29 32 39 42 45
10 13 13 16 19 32 35 42 29 32 39 26 32 32 35 39 42 45 39 42 45 45 42 42 42 42 39 35 35 35 39 26 10 6 10 13 32 29 26 35 35 39 42
13 19 16 16 19 19 19 16 26 32 32 29 32 32 32 32 32 32 32 45 42 45 42 42 45 42 42 39 39 35 39 10 10 10 16 19 26 32 29 32 32 32 35
19 19 23 23 26 19 13 19 23 26 29 29 32 42 45 39 42 26 32 39 42 42 48 45 42 32 35 32 32 35 29 16 19 16 16 26 35 35 29 32 32 29 35
16 19 23 26 23 23 23 19 23 23 32 29 29 35 39 32 42 45 42 45 45 35 42 32 26 23 23 32 35 26 26 19 16 23 26 35 35 35 29 29 32 39 35
10 23 19 23 23 26 26 19 23 23 19 16 29 32 35 48 45 42 35 35 39 39 32 23 29 26 26 26 19 16 16 19 23 19 35 35 39 39 35 32 32 29 39
19 23 26 26 29 29 23 26 19 23 23 19 39 29 32 23 39 35 45 42 39 42 29 26 26 26 26 26 26 23 19 16 16 13 35 29 32 39 35 32 29 26 19
16 16 29 26 26 35 29 26 23 26 35 23 29 32 32 29 42 35 42 45 42 48 35 42 23 32 29 29 23 19 26 23 26 26 23 35 35 32 26 29 29 29 23
19 19 29 23 23 26 32 26 19 32 29 29 26 35 42 32 39 32 39 42 45 48 39 45 29 29 29 26 29 26 29 32 23 26 26 26 26 32 32 32 32 32 26
23 26 19 19 23 29 35 42 32 29 32 32 35 35 39 39 35 39 39 39 45 39 32 32 29 23 29 35 35 29 23 32 26 29 32 26 26 23 29 35 35 32 32
32 39 32 29 26 29 35 35 42 32 29 29 29 26 35 29 26 29 39 45 29 23 26 23 29 35 39 35 29 32 32 26 29 29 29 29 29 29 29 32 35 35 32
39 39 45 45 45 39 39 35 32 29 26 26 16 26 23 19 26 32 29 35 26 26 32 39 39 45 32 45 16 16 29 26 23 23 26 26 29 29 29 29 29 26 26
45 45 52 48 55 52 48 42 35 35 26 23 19 26 29 29 29 29 32 45 32 35 39 39 42 35 35 35 23 16 13 19 19 23 23 29 26 29 29 35 32 29 29
39 42 45 52 55 52 55 61 52 39 23 19 23 29 29 26 29 23 39 35 35 42 39 42 48 39 29 29 35 23 19 13 23 16 19 23 19 35 26 29 32 32 32
35 39 35 48 52 55 48 42 39 39 35 26 26 35 32 35 32 42 52 48 39 35 35 42 48 35 32 32 29 26 26 19 23 16 23 23 29 32 29 26 32 29 29
23 26 29 48 48 55 45 39 35 39 35 35 48 32 35 32 32 32 35 48 42 29 32 29 32 39 45 35 32 39 35 35 26 19 23 23 26 29 29 29 23 26 35
26 23 29 39 45 48 48 45 42 39 35 39 42 45 45 39 32 32 32 35 42 42 42 39 45 45 45 39 39 42 42 45 35 29 19 26 26 23 26 26 32 29 29
23 23 23 32 42 42 39 35 39 45 39 39 45 42 39 35 39 29 32 39 42 45 45 42 45 39 45 39 42 42 35 35 35 32 32 29 26 26 26 26 29 26 19